This demonstration page uses our WeatherBlox Daily Observations layout. Learn more.

41.55636, -103.73856

Hourly Observations for June 26, 2017

Temp ( °F °C ) Dew Point ( °F °C ) Humidity (%) Winds ( mph kmh ) Pressure ( in mb ) Visibility ( mi km ) Precip ( " mm )
12:53 am 00:53 Clear 64 17.8 53 11.7 68 68 SW 6 9 30.11 1020 10 16.0934 0 0
1:53 am 01:53 Clear 58 14.4 52 11.1 81 81 Calm 30.12 1020 10 16.0934 0 0
2:53 am 02:53 Clear 56 13.3 51 10.6 84 84 NNE 7 11 30.12 1020 10 16.0934 0 0
3:53 am 03:53 Clear 55 12.8 51 10.6 87 87 N 6 9 30.11 1020 10 16.0934 0 0
4:53 am 04:53 Clear 55 12.8 51 10.6 87 87 ENE 3 6 30.12 1020 10 16.0934 0 0
5:53 am 05:53 Sunny 54 12.2 46 7.8 75 75 NNE 10 17 30.14 1021 10 16.0934 0 0
6:53 am 06:53 Sunny 58 14.4 44 6.7 60 60 NNW 7 11 30.14 1021 10 16.0934 0 0
7:53 am 07:53 Sunny 62 16.7 43 6.1 50 50 NNE 7 11 30.14 1021 10 16.0934 0 0
8:53 am 08:53 Sunny 65 18.3 46 7.8 51 51 Calm 30.14 1021 10 16.0934 0 0
9:53 am 09:53 Sunny 71 21.7 50 10 47 47 NE 3 6 30.12 1020 10 16.0934 0 0
10:53 am 10:53 Sunny 75 23.9 50 10 41 41 ESE 9 15 30.11 1020 10 16.0934 0 0
11:53 am 11:53 Sunny 78 25.6 44 6.7 30 30 ENE 7 11 30.08 1019 10 16.0934 0 0
12:53 pm 12:53 Sunny 79 26.1 42 5.6 27 27 ESE 7 11 30.05 1018 10 16.0934 0 0
1:53 pm 13:53 Sunny 82 27.8 42 5.6 24 24 VRB 3 6 30.04 1017 10 16.0934 0 0
2:53 pm 14:53 Sunny 83 28.3 42 5.6 24 24 SE 9 15 30.02 1017 10 16.0934 0 0
3:53 pm 15:53 Sunny 83 28.3 43 6.1 24 24 SE 9 15 30 1016 10 16.0934 0 0
4:53 pm 16:53 Sunny 83 28.3 41 5 23 23 SSE 8 13 29.98 1015 10 16.0934 0 0
5:53 pm 17:53 Sunny 83 28.3 42 5.6 24 24 ESE 9 15 29.95 1014 10 16.0934 0 0
6:53 pm 18:53 Sunny 82 27.8 43 6.1 25 25 SE 12 19 29.94 1014 10 16.0934 0 0
7:53 pm 19:53 Sunny 78 25.6 43 6.1 29 29 SE 15 24 29.93 1014 10 16.0934 0 0
8:53 pm 20:53 Clear 73 22.8 43 6.1 34 34 ESE 20 31 29.95 1014 10 16.0934 0 0
9:53 pm 21:53 Clear 69 20.6 43 6.1 39 39 ESE 14 22 29.96 1015 10 16.0934 0 0
10:53 pm 22:53 Clear 67 19.4 43 6.1 42 42 SE 15 24 29.96 1014 10 16.0934 0 0
11:53 pm 23:53 Clear 65 18.3 46 7.8 51 51 SE 12 19 29.94 1014 10 16.0934 0 0

Powered by AerisWeather